Regional Weather Roundup
Issued by NWS

Home | Current Version | Previous Version | Text Only | Print | Product List | Glossary Off
Versions: 1 2 3 4 5 6 7 8 9 10 11 12 13 14 15 16 17 18 19 20 21 22 23 24 25 26 27 28 29 30 31 32 33 34 35 36 37 38 39 40 41 42 43 44 45 46 47 48 49 50

000
ASUS45 KBOI 052310
RWRID

IDAHO REGIONAL WEATHER ROUNDUP
NATIONAL WEATHER SERVICE BOISE ID
400 PM MST FRI FEB 05 2016

NOTE: "FAIR" INDICATES FEW OR NO CLOUDS BELOW 12000 FEET
WITH NO SIGNIFICANT WEATHER AND/OR OBSTRUCTIONS TO VISIBILITY

IDZ012-014-060000-
SOUTHWEST IDAHO


CITY           SKY/WX    TMP DP  RH WIND       PRES   REMARKS
BOISE          SUNNY     47  36  65 S7        30.47S
CALDWELL       CLOUDY    37  33  85 W7        30.50S FOG     WCI  32
MOUNTAIN HOME  SUNNY     41  41 100 E16       30.48S
$$

IDZ016-017-060000-
SOUTHCENTRAL IDAHO


CITY           SKY/WX    TMP DP  RH WIND       PRES   REMARKS
BURLEY         SUNNY     34  27  75 NE8       30.47F WCI  27
JEROME         MOSUNNY   29  25  85 NE15      30.49S WCI  18
TWIN FALLS     SUNNY     34  29  82 E6        30.48S WCI  29
$$

IDZ019>023-060000-
SOUTHEAST IDAHO


CITY           SKY/WX    TMP DP  RH WIND       PRES   REMARKS
IDAHO FALLS    CLOUDY    19  16  88 N7        30.52S FOG     WCI  10
POCATELLO      CLOUDY    25  21  85 NE5       30.52S WCI  19
REXBURG        CLOUDY    21  19  92 CALM      30.50S FOG
$$

IDZ006-010-011-018-031-032-060000-
CENTRAL IDAHO MOUNTAINS


CITY           SKY/WX    TMP DP  RH WIND       PRES   REMARKS
MCCALL         CLOUDY    32  27  81 CALM      30.40F
HAILEY         SUNNY     27  18  69 CALM      30.46S
STANLEY          N/A     31  19  61 CALM      30.39F
SALMON         CLOUDY    25  16  68 CALM      30.43F
CHALLIS        SUNNY     27  16  63 CALM      30.41F
$$

IDZ002-004-006-007-026-060000-
NORTHERN IDAHO


CITY           SKY/WX    TMP DP  RH WIND       PRES   REMARKS
LEWISTON       PTSUNNY   51  33  50 S24G32    30.28F
LOWELL           N/A     41  37  86 N3        30.37F
COEUR D`ALENE  CLOUDY    45  36  70 S8        30.24F
MULLAN PASS    CLOUDY    32  28  85 VRB6      30.23F WCI  26
$$



USA.gov is the U.S. government's official web portal to all federal, state and local government web resources and services.